EW7239 Weather Reports


time (UTC)temp
F
wind
direction
speed
knots
gust
knots
rain 1hr
in
rain 24hr
in
rain mn
in
humidity
%
barometer
mb
20260505101951 55 225 1.7 4.3 0.01 0.01 0.01 86 1013.7
20260505101449 55 225 1.7 4.3 0.01 0.01 0.01 85 1013.7
20260505100948 55 225 1.7 5.2 0.01 0.01 0.01 85 1013.8
20260505100448 55 225 1.7 5.2 0.01 0.01 0.01 85 1013.8
20260505095944 55 225 0.9 3.5 0.01 0.01 0.01 85 1013.9
20260505095445 56 225 0.9 3.5 0.00 0.00 0.00 85 1013.8
20260505094941 56 225 1.7 4.3 0.00 0.00 0.00 84 1013.8
20260505094441 56 225 2.6 7.0 0.00 0.00 0.00 84 1013.9
20260505093941 56 225 2.6 7.0 0.00 0.00 0.00 84 1013.9
20260505093436 56 225 1.7 4.3 0.00 0.00 0.00 84 1013.9
20260505092938 56 225 0.9 4.3 0.00 0.00 0.00 84 1013.9
20260505092435 56 225 0.0 0.0 0.00 0.00 0.00 85 1014.0
20260505091936 55 225 0.0 0.0 0.00 0.00 0.00 84 1014.0
20260505091706 55 225 0.0 0.0 0.00 0.00 0.00 85 1014.1
20260505090936 55 225 0.0 0.0 0.00 0.00 0.00 85 1014.1
20260505090435 55 225 0.0 0.0 0.00 0.00 0.00 85 1014.2
20260505085936 55 225 0.0 0.0 0.00 0.00 0.00 85 1014.2
20260505085434 56 225 0.0 0.0 0.00 0.00 0.00 85 1014.3
20260505084935 56 225 0.0 0.0 0.00 0.00 0.00 85 1014.4
20260505084433 56 225 0.0 0.0 0.00 0.00 0.00 85 1014.3
20260505083930 56 225 0.0 1.7 0.00 0.00 0.00 85 1014.4
20260505083431 56 225 0.9 2.6 0.00 0.00 0.00 85 1014.4
20260505082926 56 225 0.9 2.6 0.00 0.00 0.00 85 1014.4
20260505082424 56 225 0.9 2.6 0.00 0.00 0.00 85 1014.5
20260505081422 56 225 0.9 2.6 0.00 0.00 0.00 84 1014.6
20260505080921 56 225 0.9 2.6 0.00 0.00 0.00 84 1014.6
20260505080419 56 225 0.9 2.6 0.00 0.00 0.00 84 1014.7
20260505075919 55 225 0.9 2.6 0.00 0.00 0.00 84 1014.8
20260505075420 56 225 1.7 5.2 0.00 0.00 0.00 84 1014.8
20260505074919 56 225 1.7 5.2 0.00 0.00 0.00 84 1014.8
20260505074417 56 225 1.7 5.2 0.00 0.00 0.00 83 1014.8
20260505073916 56 225 0.9 2.6 0.00 0.00 0.00 83 1014.8
20260505073648 56 225 0.9 3.5 0.00 0.00 0.00 83 1014.8
20260505072917 56 225 1.7 4.3 0.00 0.00 0.00 82 1014.9
20260505072649 56 225 1.7 4.3 0.00 0.00 0.00 81 1014.9
20260505071918 56 225 1.7 4.3 0.00 0.00 0.00 80 1014.9
20260505071417 56 225 2.6 5.2 0.00 0.00 0.00 80 1015.0
20260505070910 57 225 2.6 5.2 0.00 0.00 0.00 79 1014.9
20260505070408 57 225 2.6 5.2 0.00 0.00 0.00 79 1015.0
20260505065906 58 225 2.6 5.2 0.00 0.00 0.00 78 1014.9
20260505065406 58 225 3.5 6.1 0.00 0.00 0.00 78 1014.9
20260505064906 58 225 3.5 6.1 0.00 0.00 0.00 77 1015.0
20260505064405 58 226 3.5 6.1 0.00 0.00 0.00 77 1015.0
20260505063903 58 226 3.5 6.1 0.00 0.00 0.00 77 1015.0
20260505063405 58 226 3.5 7.8 0.00 0.00 0.00 77 1015.0
20260505062904 58 226 3.5 7.8 0.00 0.00 0.00 77 1015.0
20260505062404 58 226 4.3 7.8 0.00 0.00 0.00 76 1015.0
20260505061900 58 225 4.3 7.8 0.00 0.00 0.00 76 1014.9
20260505061359 58 229 4.3 7.8 0.00 0.00 0.00 76 1015.0
20260505060900 58 227 3.5 7.0 0.00 0.00 0.00 76 1015.0
20260505060356 58 227 3.5 7.8 0.00 0.00 0.00 76 1015.1
20260505055857 58 226 3.5 7.8 0.00 0.00 0.00 77 1015.0
20260505055355 58 227 4.3 7.8 0.00 0.00 0.00 76 1015.1
20260505054855 58 228 5.2 8.7 0.00 0.00 0.00 76 1015.1
20260505054355 58 225 4.3 8.7 0.00 0.00 0.00 76 1015.1
20260505053855 58 220 4.3 7.8 0.00 0.00 0.00 76 1015.2
20260505053354 58 220 4.3 7.8 0.00 0.00 0.00 76 1015.2
20260505052855 58 219 4.3 7.8 0.00 0.00 0.00 76 1015.3
20260505052353 58 219 4.3 8.7 0.00 0.00 0.00 77 1015.3
20260505051853 58 220 5.2 8.7 0.00 0.00 0.00 76 1015.3
20260505051352 58 223 4.3 8.7 0.00 0.00 0.00 76 1015.3
20260505050855 58 217 4.3 7.8 0.00 0.00 0.00 77 1015.4
20260505050352 58 216 5.2 9.6 0.00 0.00 0.00 76 1015.4
20260505050123 58 223 5.2 9.6 0.00 0.00 0.00 76 1015.3
20260505041119 59 221 6.1 10.4 0.00 0.00 0.00 74 1015.1
20260505040348 59 211 5.2 10.4 0.00 0.00 0.00 73 1015.2
20260505035847 59 224 4.3 9.6 0.00 0.00 0.00 72 1015.1
20260505035619 59 220 4.3 9.6 0.00 0.00 0.00 72 1015.0
20260505034849 59 225 5.2 11.3 0.00 0.00 0.00 71 1015.0
20260505034348 59 224 6.1 11.3 0.00 0.00 0.00 70 1014.9
20260505034116 60 228 5.2 11.3 0.00 0.00 0.00 69 1014.9
20260505033346 60 219 5.2 9.6 0.00 0.00 0.00 69 1014.9
20260505032841 60 223 6.1 11.3 0.00 0.00 0.00 69 1014.9
20260505032341 60 223 7.0 11.3 0.00 0.00 0.00 68 1014.8
20260505031841 60 224 6.1 11.3 0.00 0.00 0.00 67 1014.7
20260505031107 60 224 5.2 11.3 0.00 0.00 0.00 66 1014.8
20260505030337 60 223 6.1 10.4 0.00 0.00 0.00 66 1014.7
20260505025839 60 213 7.0 11.3 0.00 0.00 0.00 65 1014.7
20260505025337 60 213 7.0 11.3 0.00 0.00 0.00 64 1014.7
20260505025109 60 217 7.0 11.3 0.00 0.00 0.00 64 1014.7
20260505024609 60 221 7.0 11.3 0.00 0.00 0.00 64 1014.6
20260505023838 61 223 7.0 11.3 0.00 0.00 0.00 64 1014.7
20260505023338 61 207 7.0 13.9 0.00 0.00 0.00 64 1014.6
20260505022837 61 220 7.0 13.9 0.00 0.00 0.00 63 1014.6
20260505022609 61 229 7.0 13.9 0.00 0.00 0.00 63 1014.5
20260505021837 61 223 7.0 13.9 0.00 0.00 0.00 62 1014.5
20260505021337 62 204 7.0 13.0 0.00 0.00 0.00 62 1014.5
20260505020836 62 229 7.0 13.0 0.00 0.00 0.00 62 1014.5
20260505020331 62 227 6.1 11.3 0.00 0.00 0.00 61 1014.5
20260505015831 62 214 7.0 11.3 0.00 0.00 0.00 61 1014.4
20260505015332 62 207 7.0 11.3 0.00 0.00 0.00 61 1014.4
20260505015101 62 223 7.0 10.4 0.00 0.00 0.00 60 1014.4
20260505014329 62 202 7.0 10.4 0.00 0.00 0.00 60 1014.4
20260505013830 63 207 7.8 13.9 0.00 0.00 0.00 59 1014.4
20260505013325 63 223 7.8 13.9 0.00 0.00 0.00 57 1014.5
20260505012824 63 220 7.8 14.8 0.00 0.00 0.00 57 1014.5
20260505012324 63 217 7.8 14.8 0.00 0.00 0.00 55 1014.5
20260505012055 64 234 7.8 12.2 0.00 0.00 0.00 56 1014.5
20260505011051 63 223 7.8 13.9 0.00 0.00 0.00 56 1014.5
20260505010320 63 218 7.8 13.9 0.00 0.00 0.00 56 1014.6
20260505005817 63 184 8.7 13.0 0.00 0.00 0.00 56 1014.6
20260505005317 63 222 7.8 13.9 0.00 0.00 0.00 56 1014.5
20260505004817 63 211 7.8 14.8 0.00 0.00 0.00 56 1014.7
20260505004317 64 214 7.8 14.8 0.00 0.00 0.00 55 1014.6
20260505003818 64 210 7.0 13.0 0.00 0.00 0.00 56 1014.7
20260505003550 64 205 7.0 13.0 0.00 0.00 0.00 56 1014.6
20260505002818 64 215 7.0 13.0 0.00 0.00 0.00 56 1014.6
20260505002317 64 212 6.1 11.3 0.00 0.00 0.00 56 1014.7
20260505001817 65 193 7.0 13.0 0.00 0.00 0.00 56 1014.7
20260505001317 64 220 7.8 14.8 0.00 0.00 0.00 56 1014.7
20260505000817 64 231 7.8 17.4 0.00 0.00 0.00 55 1014.6
20260505000318 64 218 7.8 17.4 0.00 0.00 0.00 55 1014.6
20260504235818 65 234 7.8 16.5 0.00 0.00 0.00 55 1014.6
20260504235316 65 204 7.0 13.0 0.00 0.00 0.00 54 1014.5
20260504234815 66 203 7.0 13.0 0.00 0.00 0.00 53 1014.5
20260504234316 66 208 7.0 12.2 0.00 0.00 0.00 53 1014.4
20260504233809 66 205 7.8 14.8 0.00 0.00 0.00 54 1014.3
20260504233310 66 212 7.8 14.8 0.00 0.00 0.00 53 1014.2
20260504232810 66 232 7.8 15.6 0.00 0.00 0.00 53 1014.2
20260504232310 66 228 7.8 15.6 0.00 0.00 0.00 53 1014.3
20260504231807 66 224 8.7 20.9 0.00 0.00 0.00 52 1014.3
20260504231307 67 221 8.7 20.9 0.00 0.00 0.00 53 1014.1
20260504230533 67 218 7.0 13.0 0.00 0.00 0.00 53 1014.2
20260504225759 67 223 7.0 12.2 0.00 0.00 0.00 54 1014.2
20260504225531 67 221 7.0 13.9 0.00 0.00 0.00 54 1014.3
20260504224800 67 229 7.8 15.6 0.00 0.00 0.00 54 1014.3
20260504224532 66 209 7.8 15.6 0.00 0.00 0.00 54 1014.4
20260504223800 66 207 6.1 13.0 0.00 0.00 0.00 53 1014.4
20260504223300 67 235 5.2 9.6 0.00 0.00 0.00 52 1014.4
20260504222759 66 229 6.1 9.6 0.00 0.00 0.00 52 1014.5
20260504222300 67 211 6.1 9.6 0.00 0.00 0.00 50 1014.6
20260504222028 67 215 6.1 11.3 0.00 0.00 0.00 49 1014.6
20260504221256 67 235 6.1 11.3 0.00 0.00 0.00 50 1014.6
20260504220756 67 219 6.1 9.6 0.00 0.00 0.00 49 1014.7
20260504220253 67 221 5.2 9.6 0.00 0.00 0.00 49 1014.7
20260504215754 67 217 4.3 9.6 0.00 0.00 0.00 50 1014.8
20260504215254 67 209 5.2 10.4 0.00 0.00 0.00 49 1014.8
20260504214747 67 222 5.2 10.4 0.00 0.00 0.00 49 1014.9
20260504214248 67 252 5.2 10.4 0.00 0.00 0.00 49 1014.9
20260504213747 68 221 7.0 13.0 0.00 0.00 0.00 48 1015.1
20260504213248 68 238 6.1 13.0 0.00 0.00 0.00 49 1015.1
20260504212748 67 216 5.2 13.0 0.00 0.00 0.00 50 1015.2
20260504212241 67 239 5.2 13.0 0.00 0.00 0.00 50 1015.3
20260504211743 67 210 4.3 9.6 0.00 0.00 0.00 51 1015.3
20260504211241 67 215 4.3 9.6 0.00 0.00 0.00 51 1015.3
20260504210742 67 210 5.2 13.0 0.00 0.00 0.00 51 1015.3
20260504210242 67 193 6.1 13.0 0.00 0.00 0.00 50 1015.3
20260504205738 67 190 5.2 12.2 0.00 0.00 0.00 49 1015.2
20260504205237 68 194 5.2 11.3 0.00 0.00 0.00 48 1015.3
20260504204737 68 229 6.1 11.3 0.00 0.00 0.00 48 1015.5
20260504204237 68 209 6.1 10.4 0.00 0.00 0.00 50 1015.4
20260504203737 67 205 6.1 10.4 0.00 0.00 0.00 49 1015.5
20260504203238 67 215 6.1 12.2 0.00 0.00 0.00 52 1015.5
20260504202735 66 179 7.0 12.2 0.00 0.00 0.00 51 1015.7
20260504202507 66 223 7.0 12.2 0.00 0.00 0.00 51 1015.8
20260504201736 66 211 7.0 12.2 0.00 0.00 0.00 50 1015.8
20260504201234 66 180 6.1 13.9 0.00 0.00 0.00 50 1015.7
20260504200731 66 200 7.0 13.9 0.00 0.00 0.00 49 1015.6
20260504200232 66 205 7.0 13.0 0.00 0.00 0.00 48 1015.8
20260504195728 66 243 7.0 12.2 0.00 0.00 0.00 47 1015.8
20260504195459 67 232 6.1 12.2 0.00 0.00 0.00 46 1015.8
20260504194727 67 168 5.2 11.3 0.00 0.00 0.00 46 1015.8
20260504194227 67 222 5.2 10.4 0.00 0.00 0.00 46 1015.7
20260504193727 66 225 5.2 8.7 0.00 0.00 0.00 48 1015.8
20260504193225 66 220 5.2 8.7 0.00 0.00 0.00 49 1016.0
20260504192957 67 222 4.3 8.7 0.00 0.00 0.00 48 1015.9
20260504192224 67 221 6.1 12.2 0.00 0.00 0.00 49 1015.8
20260504191723 67 211 6.1 12.2 0.00 0.00 0.00 48 1015.8
20260504191223 67 228 5.2 11.3 0.00 0.00 0.00 50 1015.8
20260504190725 67 212 4.3 10.4 0.00 0.00 0.00 50 1015.9
20260504190223 66 236 5.2 10.4 0.00 0.00 0.00 51 1015.9
20260504185723 65 242 6.1 10.4 0.00 0.00 0.00 50 1015.9
20260504185456 67 218 6.1 12.2 0.00 0.00 0.00 49 1015.8
20260504184954 67 217 6.1 12.2 0.00 0.00 0.00 50 1015.9
20260504184224 67 222 5.2 11.3 0.00 0.00 0.00 49 1016.0
20260504183719 66 217 4.3 9.6 0.00 0.00 0.00 51 1015.9
20260504183220 65 209 4.3 9.6 0.00 0.00 0.00 52 1015.8
20260504182718 65 221 5.2 9.6 0.00 0.00 0.00 51 1016.0
20260504182218 66 227 4.3 7.8 0.00 0.00 0.00 52 1015.9
20260504181718 66 255 5.2 10.4 0.00 0.00 0.00 52 1016.1
20260504181216 65 225 5.2 10.4 0.00 0.00 0.00 52 1016.2
20260504180948 65 223 4.3 10.4 0.00 0.00 0.00 53 1016.0
20260504180218 65 231 4.3 10.4 0.00 0.00 0.00 54 1016.0
20260504175715 65 212 4.3 10.4 0.00 0.00 0.00 55 1016.0
20260504175215 64 220 4.3 10.4 0.00 0.00 0.00 56 1016.0
20260504174947 64 209 5.2 10.4 0.00 0.00 0.00 58 1016.1
20260504174216 64 205 6.1 11.3 0.00 0.00 0.00 58 1016.1
20260504173715 64 232 5.2 11.3 0.00 0.00 0.00 59 1016.1
20260504173216 64 207 4.3 8.7 0.00 0.00 0.00 59 1016.0
20260504172716 64 224 4.3 9.6 0.00 0.00 0.00 60 1016.0
20260504172216 64 224 5.2 9.6 0.00 0.00 0.00 60 1015.9
20260504171944 63 229 4.3 8.7 0.00 0.00 0.00 60 1015.8
20260504171208 63 222 3.5 7.0 0.00 0.00 0.00 60 1015.9
20260504170709 63 205 3.5 7.8 0.00 0.00 0.00 61 1016.0
20260504170209 62 222 4.3 9.6 0.00 0.00 0.00 62 1015.8
20260504160203 60 221 2.6 5.2 0.00 0.00 0.00 68 1015.7
20260504150657 57 227 2.6 4.3 0.00 0.00 0.00 76 1015.6
20260504150427 57 228 2.6 7.0 0.00 0.00 0.00 76 1015.5
20260504140648 56 232 1.7 6.1 0.00 0.00 0.00 79 1015.1
20260504140144 56 232 1.7 6.1 0.00 0.00 0.00 79 1015.3
20260504130635 55 232 1.7 5.2 0.00 0.00 0.00 79 1015.4
20260504130136 55 232 1.7 5.2 0.00 0.00 0.00 79 1015.3
20260504120134 55 232 0.9 3.5 0.00 0.00 0.00 78 1014.9
20260504110628 56 232 1.7 3.5 0.00 0.00 0.00 79 1014.8
20260504110357 56 232 1.7 3.5 0.00 0.00 0.00 78 1014.9